Date String (YYYY-MM-DD hh:mm:ss) UTC,Instrument flags,absolute air pressure of the measurement (hPa),sample flow rate (lpm),inlet stack bypass flow (lpm),air temperature of the measurement (°C),ambient temperature measured by the external sensor (°C),aerosol sample conditioner tube jacket temperature (°C),OPC LED temperature (°C),internal box temperature (°C),relative humidity of the measurement (%),span deviation,mass concentration of particles derived from Lorenz-Mie calculation of OPC scattering (μg/m³),mass concentration of particles derived from Lorenz-Mie calculation of OPC scattering (μg/m³),mass concentration of particles derived from Lorenz-Mie calculation of OPC scattering (μg/m³)
DateTimeUTC,F1_M11,P_M11,Q1_M11,Q2_M11,T1_M11,T2_M11,T3_M11,T4_M11,T5_M11,U1_M11,ZSPAN_M11,X0_M11,X2_M11,X1_M11
2023-08-26 08:00:00,SystemResetWarning,0840.2,5.02,000.00,031.3,027.8,000.0,039.4,031.2,34.7,0000.0,0007.61,0004.11,0003.61
2023-08-26 08:01:00,SystemResetWarning,0840.2,4.99,000.00,031.3,027.5,000.0,039.3,031.2,34.8,0000.0,0007.45,0004.04,0003.59
2023-08-26 08:02:00,SystemResetWarning,0840.2,4.99,000.00,031.3,025.7,000.0,039.2,031.0,34.8,0000.0,0007.48,0004.04,0003.60
2023-08-26 08:03:00,SystemResetWarning,0840.2,5.00,000.00,031.2,024.8,000.0,039.0,030.7,34.9,0000.0,0007.43,0004.02,0003.61
2023-08-26 08:04:00,SystemResetWarning,0840.1,5.02,000.00,031.1,024.7,000.0,039.0,030.5,35.4,0000.0,0007.51,0004.03,0003.60
2023-08-26 08:05:00,SystemResetWarning,0840.1,5.01,000.00,031.1,025.0,000.0,039.1,030.5,35.3,0000.0,0007.54,0004.04,0003.61
2023-08-26 08:06:00,SystemResetWarning,0840.1,5.01,000.00,031.3,025.5,000.0,039.1,030.7,35.0,0000.2,0007.53,0004.04,0003.63
2023-08-26 08:07:00,SystemResetWarning,0840.2,4.98,000.00,031.5,025.8,000.0,039.1,030.8,34.5,-000.0,0007.54,0004.05,0003.65
2023-08-26 08:08:00,SystemResetWarning,0840.2,4.99,000.00,031.6,026.2,000.0,039.1,030.9,34.2,-000.1,0007.97,0004.09,0003.66
2023-08-26 08:09:00,SystemResetWarning,0840.1,5.01,000.00,031.6,026.5,000.0,039.1,030.9,34.2,0000.2,0007.88,0004.13,0003.68
2023-08-26 08:10:00,SystemResetWarning,0840.1,5.01,000.00,031.6,026.7,000.0,039.2,030.9,34.2,0000.5,0008.20,0004.18,0003.71
2023-08-26 08:11:00,SystemResetWarning,0840.1,5.01,000.00,031.6,026.9,000.0,039.3,030.9,34.2,0000.4,0008.60,0004.22,0003.73
2023-08-26 08:12:00,SystemResetWarning,0840.1,5.00,000.00,031.6,027.0,000.0,039.3,030.9,34.3,0000.0,0008.74,0004.28,0003.75
2023-08-26 08:13:00,SystemResetWarning,0840.1,4.99,000.00,031.5,027.2,000.0,039.4,030.9,34.3,0000.0,0008.76,0004.30,0003.77
2023-08-26 08:14:00,SystemResetWarning,0840.0,5.00,000.00,031.5,027.3,000.0,039.4,030.9,34.4,0000.0,0008.85,0004.33,0003.77
2023-08-26 08:15:00,SystemResetWarning,0840.0,5.00,000.00,031.4,027.4,000.0,039.4,031.0,34.5,0000.0,0008.83,0004.32,0003.78
2023-08-26 08:16:00,SystemResetWarning,0840.0,5.00,000.00,031.4,027.4,000.0,039.4,031.0,34.6,0000.0,0008.78,0004.29,0003.77
2023-08-26 08:17:00,SystemResetWarning,0840.0,5.01,000.00,031.4,027.5,000.0,039.4,031.0,34.7,0000.0,0009.14,0004.31,0003.75
2023-08-26 08:18:00,SystemResetWarning,0839.9,5.00,000.00,031.3,027.5,000.0,039.4,031.0,34.7,0000.0,0009.42,0004.31,0003.73
2023-08-26 08:19:00,SystemResetWarning,0839.9,5.00,000.00,031.3,027.6,000.0,039.4,031.0,34.8,0000.0,0009.05,0004.29,0003.71
2023-08-26 08:20:00,SystemResetWarning,0839.9,4.99,000.00,031.2,027.6,000.0,039.4,031.1,34.8,0000.0,0008.80,0004.27,0003.71
2023-08-26 08:21:00,SystemResetWarning,0839.9,4.99,000.00,031.2,027.7,000.0,039.4,031.0,34.8,0000.0,0008.51,0004.23,0003.69
2023-08-26 08:22:00,SystemResetWarning,0839.9,5.00,000.00,031.1,027.7,000.0,039.4,031.0,34.9,0000.0,0008.19,0004.22,0003.68
2023-08-26 08:23:00,SystemResetWarning,0839.9,5.00,000.00,031.1,027.7,000.0,039.4,031.1,34.9,0000.0,0008.25,0004.22,0003.68
2023-08-26 08:24:00,SystemResetWarning,0839.9,5.01,000.00,031.1,027.7,000.0,039.4,031.1,35.0,0000.0,0008.54,0004.22,0003.67
2023-08-26 08:25:00,SystemResetWarning,0839.9,4.99,000.00,031.0,027.7,000.0,039.4,031.1,35.0,0000.0,0008.50,0004.20,0003.66
2023-08-26 08:26:00,SystemResetWarning,0839.9,5.03,000.00,031.1,027.7,000.0,039.4,031.2,35.0,0000.0,0008.38,0004.19,0003.64
2023-08-26 08:27:00,SystemResetWarning,0839.9,4.98,000.00,031.3,027.8,000.0,039.3,031.3,34.6,0000.0,0008.20,0004.16,0003.63
2023-08-26 08:28:00,SystemResetWarning,0839.9,5.00,000.00,031.4,026.9,000.0,039.2,031.2,34.4,0000.0,0007.91,0004.14,0003.63
2023-08-26 08:29:00,SystemResetWarning,0839.9,5.00,000.00,031.4,025.2,000.0,039.1,031.0,34.3,0000.0,0007.74,0004.15,0003.63
2023-08-26 08:30:00,SystemResetWarning,0839.9,5.00,000.00,031.3,024.6,000.0,039.0,030.7,34.4,0000.0,0008.21,0004.16,0003.63
2023-08-26 08:31:00,SystemResetWarning,0839.9,5.01,000.00,031.1,024.8,000.0,039.0,030.4,34.9,0000.0,0008.82,0004.15,0003.61
2023-08-26 08:32:00,SystemResetWarning,0839.8,4.99,000.00,031.0,025.2,000.0,039.1,030.4,35.2,0000.0,0009.45,0004.18,0003.61
2023-08-26 08:33:00,SystemResetWarning,0839.8,5.02,000.00,031.1,025.5,000.0,039.1,030.6,35.1,0000.0,0009.63,0004.23,0003.61
2023-08-26 08:34:00,SystemResetWarning,0839.9,4.98,000.00,031.3,025.9,000.0,039.1,030.8,34.6,0000.0,0010.04,0004.21,0003.60
2023-08-26 08:35:00,SystemResetWarning,0839.9,5.01,000.00,031.4,026.2,000.0,039.1,030.8,34.3,0000.0,0010.58,0004.20,0003.60
2023-08-26 08:36:00,SystemResetWarning,0839.9,5.01,000.00,031.4,026.5,000.0,039.1,030.8,34.1,0000.0,0011.02,0004.23,0003.60
2023-08-26 08:37:00,SystemResetWarning,0839.9,4.99,000.00,031.4,026.7,000.0,039.1,030.8,34.1,0000.0,0011.44,0004.26,0003.61
2023-08-26 08:38:00,SystemResetWarning,0839.9,4.99,000.00,031.4,026.8,000.0,039.2,030.9,34.0,0000.0,0011.71,0004.28,0003.62
2023-08-26 08:39:00,SystemResetWarning,0839.9,5.00,000.00,031.4,027.0,000.0,039.2,030.9,34.1,0000.0,0011.75,0004.26,0003.61
2023-08-26 08:40:00,SystemResetWarning,0839.9,5.01,000.00,031.4,027.1,000.0,039.3,030.9,34.2,0000.0,0011.89,0004.22,0003.59
2023-08-26 08:41:00,SystemResetWarning,0839.9,5.01,000.00,031.3,027.2,000.0,039.3,030.9,34.2,0000.0,0011.75,0004.18,0003.57
2023-08-26 08:42:00,SystemResetWarning,0839.9,4.99,000.00,031.3,027.3,000.0,039.3,030.9,34.3,0000.0,0011.10,0004.16,0003.57
2023-08-26 08:43:00,SystemResetWarning,0840.0,4.99,000.00,031.3,027.3,000.0,039.3,030.9,34.5,0000.0,0010.79,0004.12,0003.56
2023-08-26 08:44:00,SystemResetWarning,0839.9,4.99,000.00,031.2,027.4,000.0,039.3,030.9,34.5,0000.0,0011.40,0004.08,0003.54
2023-08-26 08:45:00,SystemResetWarning,0839.9,5.00,000.00,031.2,027.4,000.0,039.3,030.9,34.5,0000.0,0011.06,0004.06,0003.52
2023-08-26 08:46:00,SystemResetWarning,0839.9,5.00,000.00,031.1,027.5,000.0,039.3,031.0,34.7,0000.0,0010.30,0004.07,0003.52
2023-08-26 08:47:00,SystemResetWarning,0839.9,5.01,000.00,031.1,027.5,000.0,039.3,031.0,34.7,0000.0,0010.12,0004.07,0003.50
2023-08-26 08:48:00,SystemResetWarning,0839.9,5.00,000.00,031.0,027.6,000.0,039.3,031.0,34.8,0000.0,0009.77,0004.04,0003.50
2023-08-26 08:49:00,SystemResetWarning,0839.8,4.99,000.00,031.0,027.6,000.0,039.3,031.0,34.9,0000.0,0009.58,0004.05,0003.50
2023-08-26 08:50:00,SystemResetWarning,0839.8,4.99,000.00,030.9,027.6,000.0,039.3,031.0,34.9,0000.0,0009.89,0004.10,0003.51
2023-08-26 08:51:00,SystemResetWarning,0839.8,5.02,000.00,030.9,027.7,000.0,039.2,031.0,34.9,0000.0,0009.79,0004.18,0003.55
2023-08-26 08:52:00,SystemResetWarning,0839.8,5.00,000.00,030.9,027.7,000.0,039.2,031.0,34.9,0000.0,0009.50,0004.21,0003.59
2023-08-26 08:53:00,SystemResetWarning,0839.8,4.99,000.00,030.9,027.7,000.0,039.2,031.0,34.9,-000.6,0009.45,0004.24,0003.64
2023-08-26 08:54:00,SystemResetWarning,0839.8,4.99,000.00,030.8,027.7,000.0,039.2,031.0,34.9,-000.6,0009.41,0004.34,0003.73
2023-08-26 08:55:00,SystemResetWarning,0839.7,5.00,000.00,030.8,027.7,000.0,039.2,031.0,35.0,0000.0,0008.40,0004.40,0003.81
2023-08-26 08:56:00,SystemResetWarning,0839.7,5.03,000.00,030.9,026.4,000.0,039.0,031.0,34.9,-000.7,0008.72,0004.48,0003.91
2023-08-26 08:57:00,SystemResetWarning,0839.8,4.96,000.00,031.0,025.0,000.0,038.8,030.8,34.5,-000.8,0008.69,0004.52,0003.99
2023-08-26 08:58:00,SystemResetWarning,0839.8,5.03,000.00,030.9,024.6,000.0,038.8,030.4,34.7,-000.2,0008.44,0004.56,0004.08
2023-08-26 08:59:00,SystemResetWarning,0839.7,4.97,000.00,030.7,024.8,000.0,038.8,030.3,35.1,-000.0,0008.40,0004.63,0004.16
